Regional Weather Roundup
Issued by NWS

Home | Current Version | Previous Version | Graphics & Text | Print | Product List | Glossary Off
Versions: 1 2 3 4 5 6 7 8 9 10 11 12 13 14 15 16 17 18 19 20 21 22 23 24 25 26 27 28 29 30 31 32 33 34 35 36 37 38 39 40 41 42 43 44 45 46 47 48 49 50

000
ASUS43 KMKX 210111
RWRWI

WISCONSIN REGIONAL WEATHER ROUNDUP
NATIONAL WEATHER SERVICE MILWAUKEE/SULLIVAN WI
800 PM CDT SAT SEP 20 2014

NOTE: "FAIR" INDICATES FEW OR NO CLOUDS BELOW 12,000 FEET WITH NO
SIGNIFICANT WEATHER AND/OR OBSTRUCTIONS TO VISIBILITY.

WIZ001-002-006>008-014>016-023>028-210200-
NORTHWEST WISCONSIN

CITY           SKY/WX    TMP DP  RH WIND       PRES   REMARKS
SUPERIOR ARPT  HVY RAIN  55  54  94 SW3       29.70S
ASHLAND        CLOUDY    53  52  96 CALM      29.68F
HAYWARD        RAIN      56  53  90 VRB6      29.75R FOG
SIREN          CLOUDY    56  54  93 W8        29.76R
RICE LAKE      CLOUDY    57  53  87 NW5       29.75S
LADYSMITH      CLOUDY    61  56  84 CALM      29.73F
EAU CLAIRE     LGT RAIN  59  56  89 VRB6G21   29.70F
MENOMONIE      CLOUDY    60  57  88 SW3       29.72F
NEW RICHMOND   CLOUDY    57  56  97 W5        29.78R
OSCEOLA        MOCLDY    58  58  97 W9        29.81R
$$

WIZ003>005-009-010-017-018-210200-
NORTH CENTRAL WISCONSIN

CITY           SKY/WX    TMP DP  RH WIND       PRES   REMARKS
WOODRUFF       PTCLDY    59  53  78 CALM      29.72S
RHINELANDER    MOCLDY    57  53  86 W5        29.71F
EAGLE RIVER    CLEAR     57  52  84 N3        29.71R
LAND O LAKES   CLEAR     54  51  90 CALM      29.72S
PHILLIPS       CLOUDY    60  53  77 CALM      29.71R
TOMAHAWK       MOCLDY    59  52  77 CALM      29.72R
MEDFORD        CLOUDY    60  54  82 CALM      29.72S
MERRILL        MOCLDY    62  56  79 W5        29.71R
$$

WIZ029-030-035-036-043>047-210200-
CENTRAL WISCONSIN

CITY           SKY/WX    TMP DP  RH WIND       PRES   REMARKS
WAUSAU         MOCLDY    65  55  70 W9        29.69F
MOSINEE        PTCLDY    63  57  82 W7        29.72F
MARSHFIELD     CLOUDY    64  57  78 W5        29.71F
STEVENS POINT  MOCLDY    65  56  73 SW5       29.72R
WAUPACA        MOCLDY    66  58  76 W3        29.71S
WAUTOMA        MOCLDY    62  59  90 CALM      29.72S
WISC RAPIDS    MOCLDY    65  57  75 SW3       29.72F
CAMP DOUGLAS   PTCLDY    59  59 100 CALM      29.72F
$$

WIZ011>013-019>022-031-037>040-048>050-210200-
NORTHEAST WISCONSIN

CITY           SKY/WX    TMP DP  RH WIND       PRES   REMARKS
ANTIGO         MOCLDY    61  55  82 W7        29.71S
STURGEON BAY   PTCLDY    66  61  82 W5        29.68R
GREEN BAY      CLEAR     67  58  72 W8        29.69R
MANITOWOC      CLEAR     68  63  84 W7        29.70S
APPLETON       MOCLDY    63  57  82 W7        29.71S
CLINTONVILLE   CLEAR     66  55  68 CALM      29.68F
OSHKOSH        CLEAR     67  62  84 SW5       29.71S
$$

WIZ032>034-041-042-053>061-210200-
SOUTHWEST WISCONSIN

CITY           SKY/WX    TMP DP  RH WIND       PRES   REMARKS
LA CROSSE      LGT RAIN  68  60  75 W24       29.74R
SPARTA         PTCLDY    63  60  91 CALM      29.73F
VIROQUA        FAIR      66  57  72 CALM      29.74F
BOSCOBEL       CLEAR     65  60  84 CALM      29.74F
PRAIRIE DU CHI PTCLDY    65  59  81 E3        29.72F
PLATTEVILLE    FAIR      67  62  84 SW6       29.77F
$$

WIZ056-057-062-063-064-067-068-210200-
SOUTH CENTRAL WISCONSIN

CITY           SKY/WX    TMP DP  RH WIND       PRES   REMARKS
BARABOO/DELLS  CLEAR     66  58  76 SW5       29.74S
LONE ROCK      CLEAR     67  59  75 CALM      29.74S
WATERTOWN      CLEAR     65  62  89 CALM      29.74S
MADISON        PTCLDY    69  62  78 SW3       29.74F
MIDDLETON      FAIR      65  64  97 CALM      29.75S
MONROE         PTCLDY    68  64  88 SW8       29.77S
JANESVILLE     PTCLDY    70  63  78 SW8       29.76S
$$

WIZ051-052-058>065-066-070>072-210200-
SOUTHEAST WISCONSIN

CITY           SKY/WX    TMP DP  RH WIND       PRES   REMARKS
MILWAUKEE      MOCLDY    71  63  75 SW8       29.75R
WAUKESHA       MOCLDY    66  61  82 SW5       29.76S
MILWAUKEE/TIMM PTCLDY    70  61  73 SW5       29.75S
RACINE         CLEAR     69  63  81 SW8       29.78R
BURLINGTON     PTCLDY    64  62  93 S5        29.77S
KENOSHA        CLEAR     67  63  87 SW7       29.78R
FOND DU LAC    PTCLDY    66  62  87 SW7       29.72S
SHEBOYGAN      CLEAR     65  60  84 SW8       29.72R
WEST BEND      CLEAR     64  59  82 SW5       29.73S
JUNEAU         CLEAR     64  60  90 S6        29.75S
$$

LSZ147-162-210200-
LAKE SUPERIOR

STATION/POSITION TIME  TEMP    WIND        PRES    WAVE
                       AIR SEA DIR/SP/G            HT/PER
                 (UTC) (F)     (DEG/KT/KT) (MB)    (FT/S)
W MID LAKE BUOY  0050   51 47   10/  2/  4 1005.7R   1/ 4
DEVILS ISLAND    0100   55      30/  5/  6 1005.3F
PORT WING        0000   56      CALM  /  1 1005.1F
SAXON HARBOR     0000   57     160/  3/  4 1005.4
$$

LMZ867-665-643>646-210200-
LAKE MICHIGAN

STATION/POSITION TIME  TEMP    WIND        PRES    WAVE
                       AIR SEA DIR/SP/G            HT/PER
                 (UTC) (F)     (DEG/KT/KT) (MB)    (FT/S)
N MID LAKE BUOY  0050   60 58  340/  6/  8 1004.2R   4/ 7
NORTHPORT PIER   0000   67     280/  3/  5 1004.1F
SISTER BAY       0042             CALM       N/A
KEWAUNEE LAKESHO 0000   70     210/  6/  9 1004.1S
SHEBOYGAN LAKESH 0100   69 53  240/  8/ 10 1006.2R
PORT WASHINGTON  0000   73     250/  4/  7 1007.1S
ATWATER BUOY     0100   65     210/  8/  8 1008.4R
MILWAUKEE LAKESH 0000   72     240/  6/  9   N/A
S MID LAKE BUOY  0050   65 63  210/ 12/ 14 1008.0R
KENOSHA   LAKESH 0100   70     210/  7/ 10 1007.8S
$$

TC  - TEMPERATURE IN CELSIUS
VSB - VISIBILITY IN STATUTE MILES
WCI - WIND CHILL INDEX
HX  - HEAT INDEX




USA.gov is the U.S. government's official web portal to all federal, state and local government web resources and services.